Orbital Elements at Epoch 2459000.5 (2020-May-31.0) TDB
Reference: JPL 8 (heliocentric ecliptic J2000)
Element | Value | Uncertainty (1-sigma) | Units |
e | .2777278060905661 | 0.00044709 | |
a | 1.372429946399575 | 0.00082678 | au |
q | .9912679883730274 | 1.9609e-05 | au |
i | 5.946545763325251 | 0.010759 | deg |
node | 332.3394071041675 | 0.052025 | deg |
peri | 57.51604004632979 | 0.061041 | deg |
M | 354.5133520676796 | 2.295 | deg |
tp | 2459009.450314541577 (2020-Jun-08.95031454) | 3.7519 | TDB |
period | 587.2644417344642 1.61 | 0.53067 0.001453 | d yr |
n | .6130117446524654 | 0.00055394 | deg/d |
Q | 1.753591904426122 | 0.0010564 | au |
|
| | Orbit Determination Parameters
Additional Information
|